ST-2

Last updated on Sun Nov 16 2025 00:03:41 GMT+0000 (Coordinated Universal Time)

1 37606U 11022B 25319.46960196 -.00000205 00000+0 00000+0 0 9995 2 37606 0.0178 281.0190 0001648 339.8056 51.0700 1.00273216 53131
UTC large
Height (km)
Speed (km/s)
/
Latitude / Longitude
Inclination (degrees)
Orbital Period (minutes)
Azimuth
Elevation
Range (km)
Doppler Factor

Next 0 passes for location: London (51.5072 / 0.1276)

Sorry there are no passes over London.